Theta_e
289 289 289 289 289 288 287 287 287 287 287 286 286 285 284 283 283 283 283 283 281 279 277 276 277 277 278 278 278 278 280 280 280 281 283 288 289 292 297 298 299 298 299
289 288 288 289 288 287 287 287 287 287 286 286 285 284 283 283 283 284 283 282 280 279 277 274 274 275 276 276 276 277 278 278 279 280 284 285 287 292 297 298 300 300 298
289 288 288 288 288 287 287 287 287 286 286 285 284 283 283 283 284 284 283 281 280 277 273 271 272 273 273 274 275 275 276 276 277 278 280 284 288 291 298 297 297 296 297
288 288 288 288 287 287 287 287 287 286 286 284 283 283 283 283 284 283 281 280 276 272 271 272 272 272 272 273 274 274 275 275 276 277 279 284 287 292 297 297 298 298 298
288 288 287 287 287 287 287 287 286 286 285 284 283 282 282 283 282 281 279 273 272 272 272 272 273 273 273 274 274 274 275 276 276 278 281 283 286 293 295 296 297 297 298
287 287 287 287 286 287 287 286 286 285 284 282 281 281 282 282 280 279 271 272 272 272 272 272 273 273 273 275 275 276 277 277 277 278 279 282 287 290 294 294 294 294 294
287 287 287 286 287 287 286 286 285 283 282 281 281 281 281 281 279 277 271 271 272 272 273 273 273 273 274 275 276 277 278 278 279 279 280 281 283 289 292 293 293 294 293
287 287 287 286 287 286 285 285 283 282 281 281 280 280 280 280 278 277 271 271 272 272 273 273 273 273 274 276 276 277 278 279 278 278 279 281 283 285 289 291 292 293 293
286 286 286 286 286 285 284 283 283 282 280 280 279 279 279 279 278 270 271 271 272 273 273 273 273 273 274 275 277 277 278 280 279 279 280 281 285 286 291 291 292 292 292
286 286 286 286 285 284 283 283 281 280 279 278 279 278 279 278 275 270 271 272 273 273 273 274 274 275 275 277 277 278 279 280 281 280 280 281 284 288 288 289 291 291 292
286 286 286 285 284 283 283 282 280 278 278 277 278 278 277 274 272 271 272 273 273 274 274 273 273 274 275 276 277 278 280 280 281 280 281 282 284 287 289 290 290 291 292
285 285 285 284 283 283 282 280 279 278 277 277 277 276 273 272 271 271 273 273 274 273 272 272 272 273 274 276 277 277 279 281 283 282 282 284 285 288 288 289 290 292 293
285 285 284 283 282 281 280 279 278 276 276 275 272 270 270 271 271 271 272 273 272 271 271 271 270 271 274 274 276 278 279 280 281 284 284 283 286 287 288 289 291 293 293
285 284 283 281 280 280 279 278 277 275 275 273 270 269 269 270 271 272 272 271 270 270 270 271 270 270 273 275 276 278 279 281 282 283 286 285 286 288 289 290 291 292 293
285 284 282 281 279 278 278 277 276 274 274 272 269 269 269 270 271 272 272 271 269 270 269 271 270 270 271 272 274 276 278 280 282 284 285 286 287 289 290 291 293 294 295
284 283 281 279 277 277 276 275 274 273 273 274 271 268 269 269 270 271 271 270 269 268 271 268 267 268 269 270 270 272 273 275 280 284 286 288 290 290 292 292 294 296 297
284 282 280 278 276 276 275 274 273 272 272 273 272 272 270 269 269 269 269 270 269 271 271 269 266 267 268 269 269 270 271 273 276 281 284 288 290 291 292 293 296 297 301
281 279 278 277 276 275 274 274 273 273 272 273 272 273 272 271 270 269 269 272 272 272 271 268 267 267 267 268 269 269 270 272 275 279 282 286 289 290 292 294 296 299 306
279 278 277 276 275 274 273 273 272 271 270 271 272 272 273 271 270 270 270 270 270 269 270 269 268 267 267 268 268 269 270 271 273 276 279 283 288 292 293 295 298 302 307
277 277 276 275 274 273 272 272 271 271 270 270 270 271 272 270 271 270 269 269 269 269 269 269 268 267 267 268 268 269 269 271 271 274 279 285 288 291 293 297 301 305 306
277 276 274 274 273 271 271 271 270 269 269 269 269 269 268 269 269 269 269 269 269 269 269 269 269 268 268 268 269 269 269 271 271 275 279 282 285 292 297 299 303 306 306
276 275 273 272 271 271 271 271 270 269 269 269 268 268 268 268 268 268 268 269 269 269 269 269 269 268 268 268 269 269 269 270 272 275 278 281 286 291 297 299 302 304 305
275 274 272 270 271 271 271 270 269 269 269 269 268 268 268 268 268 267 267 267 268 269 269 269 269 269 269 269 269 269 269 270 272 274 276 281 286 291 297 299 300 303 304
273 272 271 271 270 271 270 269 269 269 268 268 268 268 268 268 268 267 267 267 267 268 269 269 269 269 269 269 269 271 270 271 274 275 277 280 285 292 295 298 299 300 302
272 271 270 270 270 270 269 269 269 268 268 268 268 268 268 268 268 267 267 267 267 267 268 269 269 269 269 269 269 270 272 272 275 276 278 280 283 288 295 297 298 299 300
271 270 270 270 270 269 269 269 268 268 268 268 268 268 268 268 268 267 267 267 267 268 268 268 269 269 269 269 269 270 271 273 274 276 277 278 281 285 288 294 296 297 298
Wind_Speed
42 36 31 25 22 19 18 20 22 25 30 33 36 37 36 35 35 36 37 38 39 39 38 39 46 44 45 45 44 46 44 45 51 52 51 41 50 50 46 42 45 45 48
43 37 30 26 21 18 18 19 23 26 29 33 35 35 34 35 36 38 40 40 42 42 41 38 44 41 44 45 44 44 45 46 46 47 40 46 51 47 43 41 35 35 44
44 36 31 25 21 19 17 20 22 25 29 32 32 33 34 36 39 40 42 42 42 41 38 36 39 38 43 42 41 43 42 43 44 42 46 45 48 48 34 34 41 43 45
43 36 30 25 20 18 17 18 20 24 29 29 30 32 34 36 39 40 40 40 38 36 36 38 40 39 39 36 38 41 41 42 41 41 43 43 49 40 29 29 31 34 39
43 36 29 23 19 17 17 18 20 24 26 28 30 31 33 36 38 39 39 35 35 38 38 38 39 38 37 38 40 42 40 39 40 38 36 40 43 39 27 26 30 28 27
41 34 27 22 18 16 16 17 21 24 25 26 29 33 35 37 38 39 31 35 35 37 42 40 37 37 39 38 40 41 42 45 46 43 43 37 37 32 25 25 28 34 35
40 33 26 21 18 16 15 17 20 23 24 26 28 31 34 35 37 36 31 33 37 38 39 43 42 41 37 39 38 38 39 41 43 47 47 46 39 36 26 24 27 27 36
41 33 28 22 17 15 14 16 19 23 24 26 28 29 32 33 35 35 31 35 35 36 38 42 41 41 40 38 40 42 45 45 43 43 48 51 47 48 34 33 33 30 39
39 32 26 20 15 13 13 15 20 22 24 24 27 30 32 32 35 30 31 36 37 43 42 41 41 41 41 39 40 44 44 43 42 41 41 42 39 40 32 25 32 32 37
37 29 22 17 13 10 10 15 19 23 23 24 26 29 30 34 35 28 31 36 43 45 45 43 38 39 38 36 38 42 43 45 43 42 39 38 36 40 46 44 41 39 38
35 27 20 15 12 10 10 14 19 21 21 23 26 27 29 30 32 28 31 37 42 46 46 47 43 40 40 39 38 41 41 40 38 36 37 35 38 40 35 36 43 40 41
31 24 18 13 11 9 10 12 17 20 22 24 26 26 25 28 29 30 33 36 39 44 44 42 43 42 40 38 38 38 37 38 39 40 37 35 36 32 42 43 44 44 47
29 22 16 12 9 8 8 11 14 16 20 22 21 23 25 27 29 32 36 38 38 37 36 40 37 36 35 30 29 30 33 36 35 35 38 40 35 38 40 42 39 45 48
25 18 13 11 9 7 7 9 11 14 17 17 18 21 25 27 31 38 41 46 40 36 39 37 30 30 22 18 22 22 23 26 31 36 34 36 34 36 35 34 39 43 47
25 19 15 13 9 6 6 6 8 11 15 15 16 19 23 28 31 32 35 39 35 34 33 32 30 34 32 27 23 21 22 24 23 29 35 36 36 35 35 36 36 41 45
25 21 17 14 9 6 3 5 6 8 11 12 12 13 18 21 26 28 31 31 29 30 33 35 38 33 35 36 34 32 26 23 18 14 24 33 33 35 35 36 34 36 39
26 22 18 14 10 7 5 3 1 6 8 10 13 14 16 20 23 25 28 29 28 34 41 40 35 40 35 38 37 36 32 29 23 19 21 22 24 33 36 36 36 34 36
27 21 17 15 11 9 6 3 2 2 4 7 10 14 17 20 21 23 28 31 37 39 40 41 42 39 42 39 41 40 37 34 29 22 21 24 28 29 30 31 30 29 39
25 22 19 15 12 10 6 4 2 4 7 8 9 10 12 18 20 24 28 34 38 40 40 42 42 42 46 42 46 46 40 39 36 28 21 21 22 24 29 29 28 29 44
24 20 18 16 14 11 8 6 3 3 5 8 13 15 17 19 22 26 29 33 35 39 40 41 43 43 44 43 45 44 43 38 40 32 24 18 16 17 22 27 25 38 45
26 23 20 17 15 13 9 7 5 3 5 8 10 12 14 17 21 24 27 31 34 37 40 42 44 46 47 44 48 46 45 46 45 36 28 22 16 12 18 24 30 44 48
26 23 21 19 17 13 10 7 5 4 5 7 6 9 11 14 18 21 24 27 31 34 37 40 43 46 48 47 52 52 50 51 47 37 30 23 16 10 15 22 27 33 45
26 23 23 21 17 15 12 9 6 4 4 4 5 7 10 13 16 19 21 24 28 32 35 38 42 46 50 49 54 53 52 53 45 35 31 26 17 8 12 18 26 30 39
25 24 22 20 18 15 13 10 8 5 4 2 4 7 10 12 15 17 20 23 24 28 32 35 39 43 49 53 57 54 53 53 47 37 31 26 19 8 13 20 28 30 35
26 24 22 20 18 16 14 11 9 6 3 1 3 6 9 11 13 16 19 22 24 26 28 31 36 40 46 50 56 57 52 54 51 47 37 28 20 8 7 18 27 32 35
25 23 21 20 18 16 14 12 9 6 4 0 3 5 8 11 13 15 18 21 23 24 26 28 32 35 39 43 51 57 56 54 53 53 48 37 28 19 7 13 21 24 32
Wind_Direction
222 226 230 237 246 258 274 286 295 304 308 310 311 312 313 313 309 305 300 296 292 289 283 277 275 274 269 266 263 265 258 258 266 273 264 266 264 263 260 258 258 263 247
221 223 226 234 243 257 272 285 297 306 311 313 314 315 316 315 314 309 305 301 296 291 287 279 275 274 270 266 265 262 261 263 264 272 275 273 268 274 263 254 255 264 255
218 219 224 230 240 255 273 288 302 310 314 315 316 318 319 318 315 312 307 304 299 294 290 285 281 277 272 269 267 264 263 264 266 271 267 269 266 270 257 258 267 273 265
215 217 222 228 238 256 270 289 304 312 314 316 317 315 316 317 315 313 309 306 303 296 291 285 282 278 274 273 269 267 266 269 272 270 265 269 265 279 258 267 272 283 276
213 214 218 227 239 257 278 295 305 310 313 314 314 316 318 318 318 316 313 309 302 299 295 290 285 280 275 270 270 270 268 269 272 272 268 264 267 273 260 262 261 276 286
210 211 216 224 239 259 280 294 303 310 312 313 318 320 321 322 322 320 311 307 302 301 299 295 289 283 277 272 269 266 266 268 268 268 269 270 263 278 263 265 276 288 291
206 208 214 224 239 260 278 293 305 311 313 318 319 318 319 323 325 323 310 309 306 304 298 295 290 285 280 278 277 271 268 264 263 265 265 262 265 256 277 268 279 289 280
204 205 211 220 236 258 278 296 307 311 316 319 316 316 319 326 327 325 317 311 309 307 302 300 294 289 284 282 280 279 279 276 275 264 258 258 260 257 259 271 271 281 281
203 206 210 220 237 257 282 302 307 311 315 316 318 320 321 328 335 326 319 317 315 309 308 302 298 292 283 278 277 279 279 273 277 267 263 253 259 251 249 257 270 278 286
200 204 211 225 242 259 287 305 311 314 318 320 319 320 324 337 342 322 322 318 313 310 309 301 296 292 287 282 277 277 280 280 270 271 267 252 255 251 248 252 258 264 276
196 201 209 226 243 267 294 308 313 314 320 320 317 323 337 338 336 325 325 321 316 312 309 306 302 297 287 280 275 274 277 280 273 266 262 262 246 251 244 238 248 261 269
193 199 210 224 242 264 291 310 312 317 321 321 323 335 334 337 336 331 328 324 319 313 312 311 311 305 292 285 277 274 274 276 276 261 261 255 245 247 248 250 256 259 264
192 198 208 220 236 259 292 308 312 318 322 326 334 329 331 339 343 337 334 330 324 320 319 317 318 321 307 278 281 277 275 271 271 253 248 250 245 246 244 246 249 252 260
191 196 208 218 227 251 289 305 315 325 326 339 333 328 332 340 347 341 341 335 331 333 326 329 336 336 335 318 303 301 291 282 268 259 254 253 249 252 251 242 245 253 258
196 198 202 211 216 237 274 299 317 327 337 338 333 333 337 341 344 340 343 340 337 336 331 349 354 350 348 340 330 321 306 288 283 266 251 249 246 248 246 246 249 255 262
190 194 194 199 202 209 251 302 333 337 337 338 338 335 343 340 339 343 346 347 348 349 3 7 357 350 345 344 341 338 332 322 297 262 251 253 252 238 241 249 255 262 256
192 190 187 188 192 186 184 187 300 348 344 350 352 355 1 350 350 350 349 360 3 5 17 13 358 350 343 344 342 340 332 329 321 292 268 250 249 253 253 255 261 254 237
186 181 178 183 183 183 177 147 77 42 26 15 360 2 8 8 4 4 6 8 14 19 19 14 4 351 349 343 343 341 342 339 333 315 289 269 254 246 254 256 254 244 212
182 176 175 176 176 177 163 130 72 29 27 23 24 19 14 17 15 16 18 20 15 15 16 16 12 358 354 349 348 347 351 342 336 326 308 286 268 260 252 253 242 226 193
175 173 174 175 173 171 160 145 120 64 36 21 18 14 22 13 17 21 21 21 18 17 17 17 15 4 355 352 349 346 347 339 339 335 329 311 283 265 246 238 227 203 185
174 173 173 171 171 164 154 141 119 88 51 38 25 18 24 14 20 21 21 22 19 18 17 16 17 12 5 356 353 351 351 346 349 345 337 324 303 267 222 220 208 195 187
173 172 170 170 168 159 153 144 138 105 68 49 27 26 24 21 19 18 20 20 21 19 17 16 17 17 13 5 356 358 358 351 353 348 339 331 312 268 208 216 210 195 187
171 172 170 168 163 160 154 158 147 132 96 68 34 27 26 23 19 14 11 13 17 18 17 16 17 19 20 14 5 8 4 356 357 353 347 340 332 303 207 206 211 204 194
169 173 171 167 164 162 163 163 159 145 114 73 33 25 20 18 14 12 9 8 13 18 20 16 19 20 19 18 10 14 16 7 10 7 5 359 350 316 221 203 217 204 202
172 174 171 169 167 168 169 167 166 155 156 133 33 19 14 13 9 8 8 8 12 15 19 20 18 21 20 18 11 15 18 18 19 20 19 18 13 359 215 204 215 211 209
173 173 171 172 172 172 171 174 171 171 177 155 10 11 6 4 2 2 3 4 9 13 16 17 17 19 23 19 10 13 16 21 22 28 27 26 28 32 68 178 194 201 210